Year,Month,Day,Hour,Minute,Value (Times are PST for temperature in C)
2013,11,28,00,00,3.10
2013,11,28,00,01,3.10
2013,11,28,00,02,3.10
2013,11,28,00,03,3.10
2013,11,28,00,04,3.10
2013,11,28,00,05,3.00
2013,11,28,00,06,3.00
2013,11,28,00,07,3.00
2013,11,28,00,08,3.00
2013,11,28,00,09,2.90
2013,11,28,00,10,2.90
2013,11,28,00,11,2.90
2013,11,28,00,12,2.90
2013,11,28,00,13,2.90
2013,11,28,00,14,2.90
2013,11,28,00,15,2.90
2013,11,28,00,16,2.90
2013,11,28,00,17,2.90
2013,11,28,00,18,2.90
2013,11,28,00,19,2.90
2013,11,28,00,20,2.90
2013,11,28,00,21,2.90
2013,11,28,00,22,2.90
2013,11,28,00,23,2.90
2013,11,28,00,24,2.80
2013,11,28,00,25,2.80
2013,11,28,00,26,2.80
2013,11,28,00,27,2.80
2013,11,28,00,28,2.80
2013,11,28,00,29,2.80
2013,11,28,00,30,2.80
2013,11,28,00,31,2.80
2013,11,28,00,32,2.80
2013,11,28,00,33,2.80
2013,11,28,00,34,2.80
2013,11,28,00,35,2.70
2013,11,28,00,36,2.70
2013,11,28,00,37,2.70
2013,11,28,00,38,2.70
2013,11,28,00,39,2.70
2013,11,28,00,40,2.70
2013,11,28,00,41,2.70
2013,11,28,00,42,2.70
2013,11,28,00,43,2.70
2013,11,28,00,44,2.70
2013,11,28,00,45,2.70
2013,11,28,00,46,2.70
2013,11,28,00,47,2.70
2013,11,28,00,48,2.60
2013,11,28,00,49,2.60
2013,11,28,00,50,2.60
2013,11,28,00,51,2.60
2013,11,28,00,52,2.60
2013,11,28,00,53,2.60
2013,11,28,00,54,2.60
2013,11,28,00,55,2.50
2013,11,28,00,56,2.50
2013,11,28,00,57,2.50
2013,11,28,00,58,2.50
2013,11,28,00,59,2.50
2013,11,28,01,00,2.50
2013,11,28,01,01,2.50
2013,11,28,01,02,2.50
2013,11,28,01,03,2.40
2013,11,28,01,04,2.40
2013,11,28,01,05,2.40
2013,11,28,01,06,2.40
2013,11,28,01,07,2.40
2013,11,28,01,08,2.40
2013,11,28,01,09,2.30
2013,11,28,01,10,2.30
2013,11,28,01,11,2.30
2013,11,28,01,12,2.30
2013,11,28,01,13,2.30
2013,11,28,01,14,2.30
2013,11,28,01,15,2.30
2013,11,28,01,16,2.30
2013,11,28,01,17,2.30
2013,11,28,01,18,2.30
2013,11,28,01,19,2.30
2013,11,28,01,20,2.30
2013,11,28,01,21,2.30
2013,11,28,01,22,2.30
2013,11,28,01,23,2.30
2013,11,28,01,24,2.30
2013,11,28,01,25,2.30
2013,11,28,01,26,2.30
2013,11,28,01,27,2.30
2013,11,28,01,28,2.30
2013,11,28,01,29,2.20
2013,11,28,01,30,2.20
2013,11,28,01,31,2.20
2013,11,28,01,32,2.20
2013,11,28,01,33,2.20
2013,11,28,01,34,2.20
2013,11,28,01,35,2.20
2013,11,28,01,36,2.20
2013,11,28,01,37,2.20
2013,11,28,01,38,2.20
2013,11,28,01,39,2.20
2013,11,28,01,40,2.20
2013,11,28,01,41,2.20
2013,11,28,01,42,2.20
2013,11,28,01,43,2.20
2013,11,28,01,44,2.20
2013,11,28,01,45,2.20
2013,11,28,01,46,2.20
2013,11,28,01,47,2.20
2013,11,28,01,48,2.20
2013,11,28,01,49,2.20
2013,11,28,01,50,2.20
2013,11,28,01,51,2.20
2013,11,28,01,52,2.20
2013,11,28,01,53,2.20
2013,11,28,01,54,2.30
2013,11,28,01,55,2.30
2013,11,28,01,56,2.30
2013,11,28,01,57,2.30
2013,11,28,01,58,2.30
2013,11,28,01,59,2.30
2013,11,28,02,00,2.30
2013,11,28,02,01,2.30
2013,11,28,02,02,2.30
2013,11,28,02,03,2.30
2013,11,28,02,04,2.30
2013,11,28,02,05,2.30
2013,11,28,02,06,2.30
2013,11,28,02,07,2.30
2013,11,28,02,08,2.30
2013,11,28,02,09,2.30
2013,11,28,02,10,2.30
2013,11,28,02,11,2.30
2013,11,28,02,12,2.30
2013,11,28,02,13,2.30
2013,11,28,02,14,2.30
2013,11,28,02,15,2.30
2013,11,28,02,16,2.30
2013,11,28,02,17,2.30
2013,11,28,02,18,2.30
2013,11,28,02,19,2.30
2013,11,28,02,20,2.30
2013,11,28,02,21,2.30
2013,11,28,02,22,2.30
2013,11,28,02,23,2.30
2013,11,28,02,24,2.30
2013,11,28,02,25,2.30
2013,11,28,02,26,2.30
2013,11,28,02,27,2.30
2013,11,28,02,28,2.30
2013,11,28,02,29,2.30
2013,11,28,02,30,2.30
2013,11,28,02,31,2.40
2013,11,28,02,32,2.40
2013,11,28,02,33,2.30
2013,11,28,02,34,2.30
2013,11,28,02,35,2.30
2013,11,28,02,36,2.30
2013,11,28,02,37,2.30
2013,11,28,02,38,2.30
2013,11,28,02,39,2.30
2013,11,28,02,40,2.40
2013,11,28,02,41,2.30
2013,11,28,02,42,2.30
2013,11,28,02,43,2.30
2013,11,28,02,44,2.30
2013,11,28,02,45,2.30
2013,11,28,02,46,2.30
2013,11,28,02,47,2.30
2013,11,28,02,48,2.30
2013,11,28,02,49,2.30
2013,11,28,02,50,2.30
2013,11,28,02,51,2.30
2013,11,28,02,52,2.30
2013,11,28,02,53,2.30
2013,11,28,02,54,2.30
2013,11,28,02,55,2.30
2013,11,28,02,56,2.30
2013,11,28,02,57,2.30
2013,11,28,02,58,2.30
2013,11,28,02,59,2.30
2013,11,28,03,00,2.30
2013,11,28,03,01,2.30
2013,11,28,03,02,2.30
2013,11,28,03,03,2.30
2013,11,28,03,04,2.30
2013,11,28,03,05,2.30
2013,11,28,03,06,2.30
2013,11,28,03,07,2.30
2013,11,28,03,08,2.30
2013,11,28,03,09,2.30
2013,11,28,03,10,2.30
2013,11,28,03,11,2.30
2013,11,28,03,12,2.30
2013,11,28,03,13,2.30
2013,11,28,03,14,2.30
2013,11,28,03,15,2.30
2013,11,28,03,16,2.30
2013,11,28,03,17,2.20
2013,11,28,03,18,2.20
2013,11,28,03,19,2.20
2013,11,28,03,20,2.20
2013,11,28,03,21,2.20
2013,11,28,03,22,2.10
2013,11,28,03,23,2.10
2013,11,28,03,24,2.10
2013,11,28,03,25,2.10
2013,11,28,03,26,2.10
2013,11,28,03,27,2.10
2013,11,28,03,28,2.10
2013,11,28,03,29,2.00
2013,11,28,03,30,2.00
2013,11,28,03,31,2.00
2013,11,28,03,32,2.00
2013,11,28,03,33,2.00
2013,11,28,03,34,2.00
2013,11,28,03,35,2.00
2013,11,28,03,36,2.00
2013,11,28,03,37,2.00
2013,11,28,03,38,2.00
2013,11,28,03,39,2.00
2013,11,28,03,40,2.00
2013,11,28,03,41,1.90
2013,11,28,03,42,1.90
2013,11,28,03,43,1.90
2013,11,28,03,44,1.90
2013,11,28,03,45,1.90
2013,11,28,03,46,1.90
2013,11,28,03,47,1.90
2013,11,28,03,48,1.90
2013,11,28,03,49,1.90
2013,11,28,03,50,1.80
2013,11,28,03,51,1.80
2013,11,28,03,52,1.80
2013,11,28,03,53,1.80
2013,11,28,03,54,1.70
2013,11,28,03,55,1.70
2013,11,28,03,56,1.70
2013,11,28,03,57,1.70
2013,11,28,03,58,1.70
2013,11,28,03,59,1.70
2013,11,28,04,00,1.70
2013,11,28,04,01,1.70
2013,11,28,04,02,1.70
2013,11,28,04,03,1.70
2013,11,28,04,04,1.70
2013,11,28,04,05,1.70
2013,11,28,04,06,1.70
2013,11,28,04,07,1.70
2013,11,28,04,08,1.70
2013,11,28,04,09,1.70
2013,11,28,04,10,1.70
2013,11,28,04,11,1.70
2013,11,28,04,12,1.70
2013,11,28,04,13,1.70
2013,11,28,04,14,1.70
2013,11,28,04,15,1.70
2013,11,28,04,16,1.70
2013,11,28,04,17,1.70
2013,11,28,04,18,1.70
2013,11,28,04,19,1.70
2013,11,28,04,20,1.70
2013,11,28,04,21,1.70
2013,11,28,04,22,1.60
2013,11,28,04,23,1.60
2013,11,28,04,24,1.60
2013,11,28,04,25,1.60
2013,11,28,04,26,1.60
2013,11,28,04,27,1.60
2013,11,28,04,28,1.60
2013,11,28,04,29,1.60
2013,11,28,04,30,1.50
2013,11,28,04,31,1.50
2013,11,28,04,32,1.50
2013,11,28,04,33,1.40
2013,11,28,04,34,1.40
2013,11,28,04,35,1.40
2013,11,28,04,36,1.40
2013,11,28,04,37,1.40
2013,11,28,04,38,1.40
2013,11,28,04,39,1.40
2013,11,28,04,40,1.40
2013,11,28,04,41,1.40
2013,11,28,04,42,1.40
2013,11,28,04,43,1.40
2013,11,28,04,44,1.30
2013,11,28,04,45,1.30
2013,11,28,04,46,1.30
2013,11,28,04,47,1.30
2013,11,28,04,48,1.30
2013,11,28,04,49,1.30
2013,11,28,04,50,1.30
2013,11,28,04,51,1.30
2013,11,28,04,52,1.30
2013,11,28,04,53,1.30
2013,11,28,04,54,1.30
2013,11,28,04,55,1.30
2013,11,28,04,56,1.30
2013,11,28,04,57,1.30
2013,11,28,04,58,1.30
2013,11,28,04,59,1.30
2013,11,28,05,00,1.30
2013,11,28,05,01,1.30
2013,11,28,05,02,1.30
2013,11,28,05,03,1.30
2013,11,28,05,04,1.30
2013,11,28,05,05,1.30
2013,11,28,05,06,1.30
2013,11,28,05,07,1.30
2013,11,28,05,08,1.30
2013,11,28,05,09,1.30
2013,11,28,05,10,1.30
2013,11,28,05,11,1.30
2013,11,28,05,12,1.30
2013,11,28,05,13,1.30
2013,11,28,05,14,1.30
2013,11,28,05,15,1.30
2013,11,28,05,16,1.40
2013,11,28,05,17,1.30
2013,11,28,05,18,1.30
2013,11,28,05,19,1.30
2013,11,28,05,20,1.30
2013,11,28,05,21,1.30
2013,11,28,05,22,1.30
2013,11,28,05,23,1.30
2013,11,28,05,24,1.30
2013,11,28,05,25,1.30
2013,11,28,05,26,1.20
2013,11,28,05,27,1.20
2013,11,28,05,28,1.20
2013,11,28,05,29,1.20
2013,11,28,05,30,1.20
2013,11,28,05,31,1.20
2013,11,28,05,32,1.20
2013,11,28,05,33,1.10
2013,11,28,05,34,1.10
2013,11,28,05,35,1.10
2013,11,28,05,36,1.10
2013,11,28,05,37,1.00
2013,11,28,05,38,1.00
2013,11,28,05,39,0.90
2013,11,28,05,40,0.90
2013,11,28,05,41,0.90
2013,11,28,05,42,0.90
2013,11,28,05,43,0.90
2013,11,28,05,44,0.90
2013,11,28,05,45,0.90
2013,11,28,05,46,0.90
2013,11,28,05,47,0.70
2013,11,28,05,48,0.70
2013,11,28,05,49,0.70
2013,11,28,05,50,0.70
2013,11,28,05,51,0.70
2013,11,28,05,52,0.70
2013,11,28,05,53,0.70
2013,11,28,05,54,0.70
2013,11,28,05,55,0.70
2013,11,28,05,56,0.70
2013,11,28,05,57,0.70
2013,11,28,09,29,3.00
2013,11,28,09,30,3.10
2013,11,28,09,31,3.30
2013,11,28,09,32,3.40
2013,11,28,09,33,3.50
2013,11,28,09,34,3.60
2013,11,28,09,35,3.60
2013,11,28,09,36,3.70
2013,11,28,09,37,3.80
2013,11,28,09,38,3.80
2013,11,28,09,39,3.80
2013,11,28,09,40,3.90
2013,11,28,09,41,3.90
2013,11,28,09,42,4.00
2013,11,28,09,43,4.10
2013,11,28,09,44,4.10
2013,11,28,09,45,4.10
2013,11,28,09,46,4.10
2013,11,28,09,47,4.10
2013,11,28,09,48,4.20
2013,11,28,09,49,4.20
2013,11,28,09,50,4.30
2013,11,28,09,51,4.30
2013,11,28,09,52,4.30
2013,11,28,09,53,4.40
2013,11,28,09,54,4.40
2013,11,28,09,55,4.50
2013,11,28,09,56,4.50
2013,11,28,09,57,4.60
2013,11,28,09,58,4.60
2013,11,28,09,59,4.60
2013,11,28,10,00,4.70
2013,11,28,10,01,4.70
2013,11,28,10,02,4.80
2013,11,28,10,03,4.80
2013,11,28,10,04,4.90
2013,11,28,10,05,4.90
2013,11,28,10,06,4.90
2013,11,28,10,07,5.00
2013,11,28,10,08,5.00
2013,11,28,10,09,5.00
2013,11,28,10,10,5.10
2013,11,28,10,11,5.10
2013,11,28,10,12,5.10
2013,11,28,10,13,5.20
2013,11,28,10,14,5.20
2013,11,28,10,15,5.30
2013,11,28,10,16,5.30
2013,11,28,10,17,5.40
2013,11,28,10,18,5.40
2013,11,28,10,19,5.50
2013,11,28,10,20,5.50
2013,11,28,10,21,5.60
2013,11,28,10,22,5.60
2013,11,28,10,23,5.70
2013,11,28,10,24,5.70
2013,11,28,10,25,5.70
2013,11,28,10,26,5.80
2013,11,28,10,27,5.80
2013,11,28,10,28,5.90
2013,11,28,10,29,6.00
2013,11,28,10,30,6.10
2013,11,28,10,31,6.10
2013,11,28,10,32,6.20
2013,11,28,10,33,6.30
2013,11,28,10,34,6.30
2013,11,28,10,35,6.40
2013,11,28,10,36,6.50
2013,11,28,10,37,6.60
2013,11,28,10,38,6.60
2013,11,28,10,39,6.60
2013,11,28,10,40,6.70
2013,11,28,10,41,6.70
2013,11,28,10,42,6.80
2013,11,28,10,43,6.90
2013,11,28,10,44,6.90
2013,11,28,10,45,7.00
2013,11,28,10,46,7.00
2013,11,28,10,47,7.10
2013,11,28,10,48,7.20
2013,11,28,10,49,7.20
2013,11,28,10,50,7.30
2013,11,28,10,51,7.40
2013,11,28,10,52,7.50
2013,11,28,10,53,7.50
2013,11,28,10,54,7.60
2013,11,28,10,55,7.70
2013,11,28,10,56,7.80
2013,11,28,10,57,7.80
2013,11,28,10,58,7.90
2013,11,28,10,59,8.00
2013,11,28,11,00,8.10
2013,11,28,11,01,8.10
2013,11,28,11,02,8.20
2013,11,28,11,03,8.30
2013,11,28,11,04,8.30
2013,11,28,11,05,8.40
2013,11,28,11,06,8.40
2013,11,28,11,07,8.50
2013,11,28,11,08,8.60
2013,11,28,11,09,8.70
2013,11,28,11,10,8.80
2013,11,28,11,11,8.80
2013,11,28,11,12,8.90
2013,11,28,11,13,8.90
2013,11,28,11,14,9.00
2013,11,28,11,15,9.10
2013,11,28,11,16,9.20
2013,11,28,11,17,9.20
2013,11,28,11,18,9.30
2013,11,28,11,19,9.30
2013,11,28,11,20,9.40
2013,11,28,11,21,9.50
2013,11,28,11,22,9.60
2013,11,28,11,23,9.60
2013,11,28,11,24,9.70
2013,11,28,11,25,9.70
2013,11,28,11,26,9.70
2013,11,28,11,27,9.70
2013,11,28,11,28,9.70
2013,11,28,11,29,9.70
2013,11,28,11,30,9.70
2013,11,28,11,31,9.70
2013,11,28,11,32,9.60
2013,11,28,11,33,9.60
2013,11,28,11,34,9.60
2013,11,28,11,35,9.60
2013,11,28,11,36,9.50
2013,11,28,11,37,9.50
2013,11,28,11,38,9.50
2013,11,28,11,39,9.50
2013,11,28,11,40,9.50
2013,11,28,11,41,9.40
2013,11,28,11,42,9.40
2013,11,28,11,43,9.40
2013,11,28,11,44,9.40
2013,11,28,11,45,9.40
2013,11,28,11,46,9.40
2013,11,28,11,47,9.50
2013,11,28,11,48,9.40
2013,11,28,11,49,9.50
2013,11,28,11,50,9.50
2013,11,28,11,51,9.50
2013,11,28,11,52,9.50
2013,11,28,11,53,9.60
2013,11,28,11,54,9.60
2013,11,28,11,55,9.60
2013,11,28,11,56,9.60
2013,11,28,11,57,9.60
2013,11,28,11,58,9.60
2013,11,28,11,59,9.60
2013,11,28,12,00,9.60
2013,11,28,12,01,9.60
2013,11,28,12,02,9.70
2013,11,28,12,03,9.70
2013,11,28,12,04,9.70
2013,11,28,12,05,9.70
2013,11,28,12,06,9.80
2013,11,28,12,07,9.80
2013,11,28,12,08,9.80
2013,11,28,12,09,9.80
2013,11,28,12,10,9.80
2013,11,28,12,11,9.80
2013,11,28,12,12,9.80
2013,11,28,12,13,9.90
2013,11,28,12,14,9.90
2013,11,28,12,15,9.90
2013,11,28,12,16,10.00
2013,11,28,12,17,10.00
2013,11,28,12,18,10.10
2013,11,28,12,19,10.10
2013,11,28,12,20,10.10
2013,11,28,12,21,10.20
2013,11,28,12,22,10.20
2013,11,28,12,23,10.30
2013,11,28,12,24,10.30
2013,11,28,12,25,10.40
2013,11,28,12,26,10.50
2013,11,28,12,27,10.60
2013,11,28,12,28,10.60
2013,11,28,12,29,10.70
2013,11,28,12,30,10.80
2013,11,28,12,31,10.80
2013,11,28,12,32,11.00
2013,11,28,12,33,11.10
2013,11,28,12,34,11.20
2013,11,28,12,35,11.30
2013,11,28,12,36,11.30
2013,11,28,12,37,11.40
2013,11,28,12,38,11.40
2013,11,28,12,39,11.40
2013,11,28,12,40,11.40
2013,11,28,12,41,11.50
2013,11,28,12,42,11.50
2013,11,28,12,43,11.50
2013,11,28,12,44,11.50
2013,11,28,12,45,11.50
2013,11,28,12,46,11.60
2013,11,28,12,47,11.60
2013,11,28,12,48,11.50
2013,11,28,12,49,11.40
2013,11,28,12,50,11.40
2013,11,28,12,51,11.40
2013,11,28,12,52,11.40
2013,11,28,12,53,11.40
2013,11,28,12,54,11.40
2013,11,28,12,55,11.40
2013,11,28,12,56,11.40
2013,11,28,12,57,11.40
2013,11,28,12,58,11.40
2013,11,28,12,59,11.40
2013,11,28,13,00,11.40
2013,11,28,13,01,11.40
2013,11,28,13,02,11.40
2013,11,28,13,03,11.40
2013,11,28,13,04,11.30
2013,11,28,13,05,11.30
2013,11,28,13,06,11.30
2013,11,28,13,07,11.30
2013,11,28,13,08,11.30
2013,11,28,13,09,11.30
2013,11,28,13,10,11.30
2013,11,28,13,11,11.30
2013,11,28,13,12,11.30
2013,11,28,13,13,11.30
2013,11,28,13,14,11.30
2013,11,28,13,15,11.30
2013,11,28,13,16,11.40
2013,11,28,13,17,11.40
2013,11,28,13,18,11.40
2013,11,28,13,19,11.40
2013,11,28,13,20,11.40
2013,11,28,13,21,11.40
2013,11,28,13,22,11.40
2013,11,28,13,23,11.40
2013,11,28,13,24,11.50
2013,11,28,13,25,11.50
2013,11,28,13,26,11.50
2013,11,28,13,27,11.40
2013,11,28,13,28,11.40
2013,11,28,13,29,11.40
2013,11,28,13,30,11.40
2013,11,28,13,31,11.50
2013,11,28,13,32,11.50
2013,11,28,13,33,11.50
2013,11,28,13,34,11.50
2013,11,28,13,35,11.50
2013,11,28,13,36,11.50
2013,11,28,13,37,11.50
2013,11,28,13,38,11.40
2013,11,28,13,39,11.40
2013,11,28,13,40,11.40
2013,11,28,13,41,11.40
2013,11,28,13,42,11.40
2013,11,28,13,43,11.40
2013,11,28,13,44,11.40
2013,11,28,13,45,11.40
2013,11,28,13,46,11.40
2013,11,28,13,47,11.40
2013,11,28,13,48,11.50
2013,11,28,13,49,11.40
2013,11,28,13,50,11.50
2013,11,28,13,51,11.50
2013,11,28,13,52,11.50
2013,11,28,13,53,11.50
2013,11,28,13,54,11.60
2013,11,28,13,55,11.60
2013,11,28,13,56,11.60
2013,11,28,13,57,11.60
2013,11,28,13,58,11.50
2013,11,28,13,59,11.50
2013,11,28,14,00,11.50
2013,11,28,14,01,11.40
2013,11,28,14,02,11.40
2013,11,28,14,03,11.40
2013,11,28,14,04,11.40
2013,11,28,14,05,11.40
2013,11,28,14,06,11.30
2013,11,28,14,07,11.30
2013,11,28,14,08,11.30
2013,11,28,14,09,11.30
2013,11,28,14,10,11.30
2013,11,28,14,11,11.30
2013,11,28,14,12,11.30
2013,11,28,14,13,11.30
2013,11,28,14,14,11.30
2013,11,28,14,15,11.30
2013,11,28,14,16,11.30
2013,11,28,14,17,11.30
2013,11,28,14,18,11.40
2013,11,28,14,19,11.40
2013,11,28,14,20,11.40
2013,11,28,14,21,11.40
2013,11,28,14,22,11.40
2013,11,28,14,23,11.50
2013,11,28,14,24,11.60
2013,11,28,14,25,11.60
2013,11,28,14,26,11.60
2013,11,28,14,27,11.60
2013,11,28,14,28,11.70
2013,11,28,14,29,11.70
2013,11,28,14,30,11.70
2013,11,28,14,31,11.70
2013,11,28,14,32,11.70
2013,11,28,14,33,11.70
2013,11,28,14,34,11.60
2013,11,28,14,35,11.60
2013,11,28,14,36,11.60
2013,11,28,14,37,11.50
2013,11,28,14,38,11.50
2013,11,28,14,39,11.40
2013,11,28,14,40,11.40
2013,11,28,14,41,11.40
2013,11,28,14,42,11.40
2013,11,28,14,43,11.40
2013,11,28,14,44,11.40
2013,11,28,14,45,11.40
2013,11,28,14,46,11.50
2013,11,28,14,47,11.50
2013,11,28,14,48,11.50
2013,11,28,14,49,11.50
2013,11,28,14,50,11.50
2013,11,28,14,51,11.50
2013,11,28,14,52,11.50
2013,11,28,14,53,11.60
2013,11,28,14,54,11.60
2013,11,28,14,55,11.60
2013,11,28,14,56,11.60
2013,11,28,14,57,11.60
2013,11,28,14,58,11.60
2013,11,28,14,59,11.60
2013,11,28,15,00,11.60
2013,11,28,15,01,11.60
2013,11,28,15,02,11.60
2013,11,28,15,03,11.60
2013,11,28,15,04,11.60
2013,11,28,15,05,11.60
2013,11,28,15,06,11.60
2013,11,28,15,07,11.60
2013,11,28,15,08,11.60
2013,11,28,15,09,11.60
2013,11,28,15,10,11.60
2013,11,28,15,11,11.60
2013,11,28,15,12,11.60
2013,11,28,15,13,11.60
2013,11,28,15,14,11.60
2013,11,28,15,15,11.60
2013,11,28,15,16,11.70
2013,11,28,15,17,11.70
2013,11,28,15,18,11.70
2013,11,28,15,19,11.70
2013,11,28,15,20,11.70
2013,11,28,15,21,11.70
2013,11,28,15,22,11.70
2013,11,28,15,23,11.70
2013,11,28,15,24,11.70
2013,11,28,15,25,11.70
2013,11,28,15,26,11.70
2013,11,28,15,27,11.70
2013,11,28,15,28,11.70
2013,11,28,15,29,11.70
2013,11,28,15,30,11.70
2013,11,28,15,31,11.70
2013,11,28,15,32,11.80
2013,11,28,15,33,11.70
2013,11,28,15,34,11.70
2013,11,28,15,35,11.70
2013,11,28,15,36,11.70
2013,11,28,15,37,11.70
2013,11,28,15,38,11.70
2013,11,28,15,39,11.70
2013,11,28,15,40,11.60
2013,11,28,15,41,11.60
2013,11,28,15,42,11.60
2013,11,28,15,43,11.60
2013,11,28,15,44,11.60
2013,11,28,15,45,11.60
2013,11,28,15,46,11.60
2013,11,28,15,47,11.60
2013,11,28,15,48,11.60
2013,11,28,15,49,11.60
2013,11,28,15,50,11.60
2013,11,28,15,51,11.50
2013,11,28,15,52,11.50
2013,11,28,15,53,11.40
2013,11,28,15,54,11.40
2013,11,28,15,55,11.40
2013,11,28,15,56,11.30
2013,11,28,15,57,11.30
2013,11,28,15,58,11.20
2013,11,28,15,59,11.20
2013,11,28,16,00,11.20
2013,11,28,16,01,11.10
2013,11,28,16,02,11.10
2013,11,28,16,03,11.10
2013,11,28,16,04,11.10
2013,11,28,16,05,11.10
2013,11,28,16,06,11.00
2013,11,28,16,07,11.00
2013,11,28,16,08,11.00
2013,11,28,16,09,10.90
2013,11,28,16,10,10.90
2013,11,28,16,11,10.90
2013,11,28,16,12,10.90
2013,11,28,16,13,10.80
2013,11,28,16,14,10.80
2013,11,28,16,15,10.80
2013,11,28,16,16,10.80
2013,11,28,16,17,10.70
2013,11,28,16,18,10.70
2013,11,28,16,19,10.70
2013,11,28,16,20,10.70
2013,11,28,16,21,10.70
2013,11,28,16,22,10.60
2013,11,28,16,23,10.60
2013,11,28,16,24,10.60
2013,11,28,16,25,10.60
2013,11,28,16,26,10.60
2013,11,28,16,27,10.60
2013,11,28,16,28,10.60
2013,11,28,16,29,10.50
2013,11,28,16,30,10.50
2013,11,28,16,31,10.50
2013,11,28,16,32,10.50
2013,11,28,16,33,10.50
2013,11,28,16,34,10.50
2013,11,28,16,35,10.50
2013,11,28,16,36,10.50
2013,11,28,16,37,10.50
2013,11,28,16,38,10.50
2013,11,28,16,39,10.50
2013,11,28,16,40,10.40
2013,11,28,16,41,10.40
2013,11,28,16,42,10.40
2013,11,28,16,43,10.40
2013,11,28,16,44,10.40
2013,11,28,16,45,10.40
2013,11,28,16,46,10.40
2013,11,28,16,47,10.40
2013,11,28,16,48,10.30
2013,11,28,16,49,10.30
2013,11,28,16,50,10.30
2013,11,28,16,51,10.30
2013,11,28,16,52,10.20
2013,11,28,16,53,10.20
2013,11,28,16,54,10.20
2013,11,28,16,55,10.20
2013,11,28,16,56,10.10
2013,11,28,16,57,10.10
2013,11,28,16,58,10.10
2013,11,28,16,59,10.10
2013,11,28,17,00,10.10
2013,11,28,17,01,10.00
2013,11,28,17,02,10.00
2013,11,28,17,03,10.00
2013,11,28,17,04,9.90
2013,11,28,17,05,9.90
2013,11,28,17,06,9.90
2013,11,28,17,07,9.90
2013,11,28,17,08,9.90
2013,11,28,17,09,9.90
2013,11,28,17,10,9.90
2013,11,28,17,11,9.90
2013,11,28,17,12,9.90
2013,11,28,17,13,9.90
2013,11,28,17,14,9.90
2013,11,28,17,15,9.90
2013,11,28,17,16,9.80
2013,11,28,17,17,9.80
2013,11,28,17,18,9.80
2013,11,28,17,19,9.80
2013,11,28,17,20,9.80
2013,11,28,17,21,9.80
2013,11,28,17,22,9.80
2013,11,28,17,23,9.80
2013,11,28,17,24,9.80
2013,11,28,17,25,9.80
2013,11,28,17,26,9.80
2013,11,28,17,27,9.80
2013,11,28,17,28,9.80
2013,11,28,17,29,9.80
2013,11,28,17,30,9.70
2013,11,28,17,31,9.70
2013,11,28,17,32,9.70
2013,11,28,17,33,9.70
2013,11,28,17,34,9.70
2013,11,28,17,35,9.70
2013,11,28,17,36,9.70
2013,11,28,17,37,9.70
2013,11,28,17,38,9.70
2013,11,28,17,39,9.60
2013,11,28,17,40,9.60
2013,11,28,17,41,9.60
2013,11,28,17,42,9.60
2013,11,28,17,43,9.60
2013,11,28,17,44,9.60
2013,11,28,17,45,9.50
2013,11,28,17,46,9.50
2013,11,28,17,47,9.50
2013,11,28,17,48,9.50
2013,11,28,17,49,9.50
2013,11,28,17,50,9.50
2013,11,28,17,51,9.50
2013,11,28,17,52,9.50
2013,11,28,17,53,9.50
2013,11,28,17,54,9.50
2013,11,28,17,55,9.50
2013,11,28,17,56,9.50
2013,11,28,17,57,9.50
2013,11,28,17,58,9.50
2013,11,28,17,59,9.50
2013,11,28,18,00,9.50
2013,11,28,18,01,9.40
2013,11,28,18,02,9.40
2013,11,28,18,03,9.40
2013,11,28,18,04,9.40
2013,11,28,18,05,9.40
2013,11,28,18,06,9.40
2013,11,28,18,07,9.40
2013,11,28,18,08,9.40
2013,11,28,18,09,9.40
2013,11,28,18,10,9.40
2013,11,28,18,11,9.40
2013,11,28,18,12,9.30
2013,11,28,18,13,9.30
2013,11,28,18,14,9.30
2013,11,28,18,15,9.20
2013,11,28,18,16,9.20
2013,11,28,18,17,9.20
2013,11,28,18,18,9.10
2013,11,28,18,19,9.10
2013,11,28,18,20,9.10
2013,11,28,18,21,9.10
2013,11,28,18,22,9.10
2013,11,28,18,23,9.10
2013,11,28,18,24,9.10
2013,11,28,18,25,9.10
2013,11,28,18,26,9.10
2013,11,28,18,27,9.00
2013,11,28,18,28,9.00
2013,11,28,18,29,9.00
2013,11,28,18,30,9.00
2013,11,28,18,31,9.00
2013,11,28,18,32,9.00
2013,11,28,18,33,8.90
2013,11,28,18,34,8.90
2013,11,28,18,35,8.90
2013,11,28,18,36,8.90
2013,11,28,18,37,8.90
2013,11,28,18,38,8.90
2013,11,28,18,39,8.80
2013,11,28,18,40,8.80
2013,11,28,18,41,8.80
2013,11,28,18,42,8.80
2013,11,28,18,43,8.80
2013,11,28,18,44,8.80
2013,11,28,18,45,8.80
2013,11,28,18,46,8.80
2013,11,28,18,47,8.70
2013,11,28,18,48,8.70
2013,11,28,18,49,8.70
2013,11,28,18,50,8.70
2013,11,28,18,51,8.70
2013,11,28,18,52,8.60
2013,11,28,18,53,8.60
2013,11,28,18,54,8.60
2013,11,28,18,55,8.60
2013,11,28,18,56,8.60
2013,11,28,18,57,8.50
2013,11,28,18,58,8.50
2013,11,28,18,59,8.50
2013,11,28,19,00,8.40
2013,11,28,19,01,8.40
2013,11,28,19,02,8.40
2013,11,28,19,03,8.40
2013,11,28,19,04,8.40
2013,11,28,19,05,8.40
2013,11,28,19,06,8.30
2013,11,28,19,07,8.30
2013,11,28,19,08,8.30
2013,11,28,19,09,8.30
2013,11,28,19,10,8.30
2013,11,28,19,11,8.30
2013,11,28,19,12,8.30
2013,11,28,19,13,8.30
2013,11,28,19,14,8.30
2013,11,28,19,15,8.30
2013,11,28,19,16,8.30
2013,11,28,19,17,8.30
2013,11,28,19,18,8.30
2013,11,28,19,19,8.30
2013,11,28,19,20,8.30
2013,11,28,19,21,8.20
2013,11,28,19,22,8.20
2013,11,28,19,23,8.20
2013,11,28,19,24,8.20
2013,11,28,19,25,8.20
2013,11,28,19,26,8.20
2013,11,28,19,27,8.20
2013,11,28,19,28,8.20
2013,11,28,19,29,8.20
2013,11,28,19,30,8.20
2013,11,28,19,31,8.20
2013,11,28,19,32,8.20
2013,11,28,19,33,8.20
2013,11,28,19,34,8.10
2013,11,28,19,35,8.10
2013,11,28,19,36,8.10
2013,11,28,19,37,8.10
2013,11,28,19,38,8.10
2013,11,28,19,39,8.10
2013,11,28,19,40,8.10
2013,11,28,19,41,8.10
2013,11,28,19,42,8.10
2013,11,28,19,43,8.10
2013,11,28,19,44,8.10
2013,11,28,19,45,8.10
2013,11,28,19,46,8.10
2013,11,28,19,47,8.10
2013,11,28,19,48,8.10
2013,11,28,19,49,8.10
2013,11,28,19,50,8.10
2013,11,28,19,51,8.10
2013,11,28,19,52,8.10
2013,11,28,19,53,8.10
2013,11,28,19,54,8.10
2013,11,28,19,55,8.20
2013,11,28,19,56,8.20
2013,11,28,19,57,8.20
2013,11,28,19,58,8.20
2013,11,28,19,59,8.20
2013,11,28,20,00,8.20
2013,11,28,20,01,8.20
2013,11,28,20,02,8.20
2013,11,28,20,03,8.20
2013,11,28,20,04,8.20
2013,11,28,20,05,8.20
2013,11,28,20,06,8.20
2013,11,28,20,07,8.20
2013,11,28,20,08,8.20
2013,11,28,20,09,8.20
2013,11,28,20,10,8.20
2013,11,28,20,11,8.20
2013,11,28,20,12,8.20
2013,11,28,20,13,8.20
2013,11,28,20,14,8.20
2013,11,28,20,15,8.20
2013,11,28,20,16,8.20
2013,11,28,20,17,8.20
2013,11,28,20,18,8.20
2013,11,28,20,19,8.20
2013,11,28,20,20,8.20
2013,11,28,20,21,8.20
2013,11,28,20,22,8.20
2013,11,28,20,23,8.20
2013,11,28,20,24,8.20
2013,11,28,20,25,8.20
2013,11,28,20,26,8.20
2013,11,28,20,27,8.20
2013,11,28,20,28,8.20
2013,11,28,20,29,8.20
2013,11,28,20,30,8.20
2013,11,28,20,31,8.20
2013,11,28,20,32,8.20
2013,11,28,20,33,8.10
2013,11,28,20,34,8.10
2013,11,28,20,35,8.10
2013,11,28,20,36,8.10
2013,11,28,20,37,8.10
2013,11,28,20,38,8.10
2013,11,28,20,39,8.10
2013,11,28,20,40,8.10
2013,11,28,20,41,8.10
2013,11,28,20,42,8.10
2013,11,28,20,43,8.00
2013,11,28,20,44,8.00
2013,11,28,20,45,8.00
2013,11,28,20,46,8.00
2013,11,28,20,47,8.00
2013,11,28,20,48,8.00
2013,11,28,20,49,8.00
2013,11,28,20,50,8.00
2013,11,28,20,51,8.00
2013,11,28,20,52,8.00
2013,11,28,20,53,8.00
2013,11,28,20,54,8.00
2013,11,28,20,55,8.00
2013,11,28,20,56,7.90
2013,11,28,20,57,7.90
2013,11,28,20,58,7.90
2013,11,28,20,59,7.90
2013,11,28,21,00,7.90
2013,11,28,21,01,7.90
2013,11,28,21,02,7.90
2013,11,28,21,03,7.90
2013,11,28,21,04,7.90
2013,11,28,21,05,7.90
2013,11,28,21,06,7.90
2013,11,28,21,07,7.90
2013,11,28,21,08,7.90
2013,11,28,21,09,7.90
2013,11,28,21,10,7.90
2013,11,28,21,11,7.90
2013,11,28,21,12,7.90
2013,11,28,21,13,7.90
2013,11,28,21,14,7.90
2013,11,28,21,15,7.90
2013,11,28,21,16,7.90
2013,11,28,21,17,7.90
2013,11,28,21,18,7.90
2013,11,28,21,19,7.90
2013,11,28,21,20,7.90
2013,11,28,21,21,7.90
2013,11,28,21,22,7.90
2013,11,28,21,23,7.90
2013,11,28,21,24,7.90